| time (UTC) | temp C | wind direction | speed KPH | gust KPH | rain 1hr cm | rain 24hr cm | rain mn cm | humidity % | barometer mb |
| 20260508141845 | 27 | 17 | 1.6 | 1.6 | 0.00 | 0.00 | 0.00 | 20 | 1017.3 |
| 20260508141345 | 27 | 311 | 0.0 | 0.0 | 0.00 | 0.00 | 0.00 | 20 | 1017.3 |
| 20260508140844 | 27 | 304 | 1.6 | 1.6 | 0.00 | 0.00 | 0.00 | 20 | 1016.9 |
| 20260508140345 | 27 | 342 | 1.6 | 0.0 | 0.00 | 0.00 | 0.00 | 21 | 1016.9 |
| 20260508135845 | 27 | 51 | 1.6 | 1.6 | 0.00 | 0.00 | 0.00 | 21 | 1016.9 |
| 20260508135344 | 27 | 350 | 0.0 | 0.0 | 0.00 | 0.00 | 0.00 | 22 | 1017.3 |
| 20260508134844 | 27 | 306 | 3.2 | 3.2 | 0.00 | 0.00 | 0.00 | 22 | 1016.9 |
| 20260508134344 | 26 | 76 | 1.6 | 1.6 | 0.00 | 0.00 | 0.00 | 22 | 1016.9 |
| 20260508133844 | 26 | 35 | 1.6 | 1.6 | 0.00 | 0.00 | 0.00 | 22 | 1017.3 |
| 20260508133344 | 27 | 321 | 1.6 | 1.6 | 0.00 | 0.00 | 0.00 | 22 | 1017.3 |
| 20260508132846 | 27 | 311 | 1.6 | 3.2 | 0.00 | 0.00 | 0.00 | 22 | 1017.3 |
| 20260508132344 | 28 | 75 | 1.6 | 1.6 | 0.00 | 0.00 | 0.00 | 21 | 1017.3 |
| 20260508131845 | 27 | 330 | 1.6 | 1.6 | 0.00 | 0.00 | 0.00 | 21 | 1017.3 |
| 20260508131344 | 27 | 268 | 0.0 | 0.0 | 0.00 | 0.00 | 0.00 | 22 | 1017.3 |
| 20260508130845 | 26 | 21 | 0.0 | 0.0 | 0.00 | 0.00 | 0.00 | 22 | 1017.3 |
| 20260508130345 | 26 | 7 | 3.2 | 3.2 | 0.00 | 0.00 | 0.00 | 22 | 1017.3 |
| 20260508125846 | 26 | 57 | 1.6 | 1.6 | 0.00 | 0.00 | 0.00 | 22 | 1017.3 |
| 20260508125344 | 26 | 324 | 1.6 | 1.6 | 0.00 | 0.00 | 0.00 | 22 | 1017.3 |
| 20260508124845 | 27 | 60 | 3.2 | 3.2 | 0.00 | 0.00 | 0.00 | 22 | 1017.6 |
| 20260508124344 | 27 | 6 | 1.6 | 1.6 | 0.00 | 0.00 | 0.00 | 22 | 1017.6 |
| 20260508123845 | 26 | 251 | 1.6 | 1.6 | 0.00 | 0.00 | 0.00 | 23 | 1017.6 |
| 20260508123344 | 26 | 292 | 1.6 | 1.6 | 0.00 | 0.00 | 0.00 | 23 | 1017.6 |
| 20260508122844 | 27 | 92 | 3.2 | 3.2 | 0.00 | 0.00 | 0.00 | 22 | 1017.6 |
| 20260508121856 | 27 | 358 | 1.6 | 1.6 | 0.00 | 0.00 | 0.00 | 22 | 1017.6 |
| 20260508121344 | 27 | 146 | 1.6 | 1.6 | 0.00 | 0.00 | 0.00 | 22 | 1017.6 |
| 20260508120846 | 26 | 74 | 3.2 | 3.2 | 0.00 | 0.00 | 0.00 | 23 | 1017.9 |
| 20260508120344 | 26 | 57 | 1.6 | 3.2 | 0.00 | 0.00 | 0.00 | 23 | 1017.6 |
| 20260508115845 | 26 | 69 | 1.6 | 3.2 | 0.00 | 0.00 | 0.00 | 23 | 1017.9 |
| 20260508115344 | 26 | 49 | 6.4 | 8.0 | 0.00 | 0.00 | 0.00 | 23 | 1017.9 |
| 20260508114844 | 26 | 210 | 1.6 | 0.0 | 0.00 | 0.00 | 0.00 | 23 | 1017.9 |
| 20260508114345 | 26 | 323 | 1.6 | 1.6 | 0.00 | 0.00 | 0.00 | 23 | 1017.9 |
| 20260508113844 | 26 | 285 | 1.6 | 0.0 | 0.00 | 0.00 | 0.00 | 24 | 1018.3 |
| 20260508113344 | 27 | 342 | 3.2 | 3.2 | 0.00 | 0.00 | 0.00 | 23 | 1017.9 |
| 20260508112845 | 26 | 216 | 0.0 | 0.0 | 0.00 | 0.00 | 0.00 | 24 | 1017.9 |
| 20260508112346 | 26 | 69 | 3.2 | 1.6 | 0.00 | 0.00 | 0.00 | 24 | 1018.3 |
| 20260508111845 | 26 | 312 | 1.6 | 1.6 | 0.00 | 0.00 | 0.00 | 24 | 1018.6 |
| 20260508111344 | 26 | 66 | 1.6 | 0.0 | 0.00 | 0.00 | 0.00 | 24 | 1018.3 |
| 20260508110845 | 25 | 212 | 1.6 | 0.0 | 0.00 | 0.00 | 0.00 | 24 | 1018.3 |
| 20260508110344 | 26 | 86 | 4.8 | 4.8 | 0.00 | 0.00 | 0.00 | 23 | 1018.6 |
| 20260508105844 | 25 | 289 | 1.6 | 1.6 | 0.00 | 0.00 | 0.00 | 24 | 1018.6 |
| 20260508105344 | 25 | 33 | 1.6 | 3.2 | 0.00 | 0.00 | 0.00 | 24 | 1018.3 |
| 20260508104845 | 25 | 40 | 4.8 | 9.7 | 0.00 | 0.00 | 0.00 | 24 | 1018.3 |
| 20260508104345 | 25 | 277 | 3.2 | 3.2 | 0.00 | 0.00 | 0.00 | 25 | 1018.6 |
| 20260508103844 | 25 | 319 | 3.2 | 3.2 | 0.00 | 0.00 | 0.00 | 24 | 1018.6 |
| 20260508103345 | 25 | 6 | 1.6 | 1.6 | 0.00 | 0.00 | 0.00 | 25 | 1019.0 |
| 20260508102844 | 25 | 45 | 4.8 | 9.7 | 0.00 | 0.00 | 0.00 | 24 | 1018.6 |
| 20260508102345 | 25 | 35 | 1.6 | 1.6 | 0.00 | 0.00 | 0.00 | 24 | 1019.0 |
| 20260508101845 | 25 | 34 | 1.6 | 1.6 | 0.00 | 0.00 | 0.00 | 25 | 1019.0 |
| 20260508101348 | 25 | 88 | 1.6 | 1.6 | 0.00 | 0.00 | 0.00 | 26 | 1018.6 |
| 20260508100845 | 25 | 344 | 0.0 | 0.0 | 0.00 | 0.00 | 0.00 | 26 | 1019.0 |
| 20260508100344 | 25 | 256 | 3.2 | 3.2 | 0.00 | 0.00 | 0.00 | 25 | 1019.0 |
| 20260508095846 | 25 | 300 | 1.6 | 3.2 | 0.00 | 0.00 | 0.00 | 25 | 1019.0 |
| 20260508095344 | 23 | 40 | 3.2 | 3.2 | 0.00 | 0.00 | 0.00 | 26 | 1019.0 |
| 20260508094847 | 24 | 72 | 6.4 | 9.7 | 0.00 | 0.00 | 0.00 | 26 | 1019.0 |
| 20260508094345 | 23 | 6 | 1.6 | 1.6 | 0.00 | 0.00 | 0.00 | 28 | 1019.0 |
| 20260508093845 | 24 | 295 | 3.2 | 4.8 | 0.00 | 0.00 | 0.00 | 28 | 1019.0 |
| 20260508093344 | 25 | 65 | 4.8 | 4.8 | 0.00 | 0.00 | 0.00 | 27 | 1019.0 |
| 20260508092846 | 24 | 336 | 1.6 | 0.0 | 0.00 | 0.00 | 0.00 | 27 | 1019.0 |
| 20260508092344 | 23 | 284 | 1.6 | 3.2 | 0.00 | 0.00 | 0.00 | 28 | 1019.0 |
| 20260508091845 | 23 | 103 | 1.6 | 3.2 | 0.00 | 0.00 | 0.00 | 29 | 1019.3 |
| 20260508091345 | 23 | 83 | 6.4 | 8.0 | 0.00 | 0.00 | 0.00 | 29 | 1019.3 |
| 20260508090845 | 23 | 45 | 1.6 | 3.2 | 0.00 | 0.00 | 0.00 | 30 | 1019.3 |
| 20260508090344 | 22 | 77 | 1.6 | 1.6 | 0.00 | 0.00 | 0.00 | 29 | 1019.3 |
| 20260508085844 | 22 | 83 | 11.3 | 12.9 | 0.00 | 0.00 | 0.00 | 29 | 1019.3 |
| 20260508085344 | 23 | 83 | 4.8 | 12.9 | 0.00 | 0.00 | 0.00 | 29 | 1019.6 |
| 20260508084845 | 23 | 320 | 1.6 | 1.6 | 0.00 | 0.00 | 0.00 | 29 | 1019.6 |
| 20260508084344 | 22 | 290 | 1.6 | 3.2 | 0.00 | 0.00 | 0.00 | 30 | 1019.6 |
| 20260508083845 | 22 | 114 | 3.2 | 3.2 | 0.00 | 0.00 | 0.00 | 30 | 1019.6 |
| 20260508083345 | 23 | 89 | 6.4 | 12.9 | 0.00 | 0.00 | 0.00 | 29 | 1020.0 |
| 20260508082845 | 23 | 269 | 1.6 | 1.6 | 0.00 | 0.00 | 0.00 | 30 | 1020.0 |
| 20260508082344 | 22 | 304 | 3.2 | 3.2 | 0.00 | 0.00 | 0.00 | 31 | 1020.0 |
| 20260508081846 | 22 | 69 | 1.6 | 1.6 | 0.00 | 0.00 | 0.00 | 31 | 1019.6 |
| 20260508081345 | 22 | 66 | 4.8 | 3.2 | 0.00 | 0.00 | 0.00 | 31 | 1020.0 |
| 20260508080845 | 22 | 260 | 3.2 | 3.2 | 0.00 | 0.00 | 0.00 | 31 | 1019.6 |
| 20260508080345 | 22 | 110 | 4.8 | 9.7 | 0.00 | 0.00 | 0.00 | 31 | 1020.0 |
| 20260508075846 | 22 | 51 | 1.6 | 1.6 | 0.00 | 0.00 | 0.00 | 31 | 1019.6 |
| 20260508075344 | 22 | 82 | 8.0 | 11.3 | 0.00 | 0.00 | 0.00 | 31 | 1020.0 |
| 20260508074844 | 22 | 47 | 3.2 | 3.2 | 0.00 | 0.00 | 0.00 | 31 | 1020.0 |
| 20260508074344 | 22 | 80 | 1.6 | 3.2 | 0.00 | 0.00 | 0.00 | 31 | 1020.0 |
| 20260508073844 | 22 | 47 | 3.2 | 3.2 | 0.00 | 0.00 | 0.00 | 31 | 1020.3 |
| 20260508073344 | 22 | 65 | 8.0 | 9.7 | 0.00 | 0.00 | 0.00 | 31 | 1020.0 |
| 20260508072846 | 22 | 351 | 6.4 | 9.7 | 0.00 | 0.00 | 0.00 | 31 | 1020.0 |
| 20260508072345 | 21 | 335 | 4.8 | 8.0 | 0.00 | 0.00 | 0.00 | 32 | 1020.0 |
| 20260508071845 | 22 | 310 | 4.8 | 4.8 | 0.00 | 0.00 | 0.00 | 31 | 1020.0 |
| 20260508071345 | 22 | 93 | 3.2 | 4.8 | 0.00 | 0.00 | 0.00 | 31 | 1020.0 |
| 20260508070844 | 21 | 44 | 1.6 | 1.6 | 0.00 | 0.00 | 0.00 | 32 | 1020.0 |
| 20260508070344 | 21 | 175 | 1.6 | 1.6 | 0.00 | 0.00 | 0.00 | 31 | 1020.3 |
| 20260508065845 | 21 | 37 | 4.8 | 4.8 | 0.00 | 0.00 | 0.00 | 32 | 1020.0 |
| 20260508065344 | 21 | 335 | 3.2 | 3.2 | 0.00 | 0.00 | 0.00 | 32 | 1020.3 |
| 20260508064844 | 21 | 129 | 6.4 | 9.7 | 0.00 | 0.00 | 0.00 | 32 | 1020.0 |
| 20260508064344 | 21 | 110 | 4.8 | 4.8 | 0.00 | 0.00 | 0.00 | 32 | 1020.3 |
| 20260508063845 | 21 | 54 | 1.6 | 3.2 | 0.00 | 0.00 | 0.00 | 32 | 1020.0 |
| 20260508063345 | 21 | 28 | 3.2 | 4.8 | 0.00 | 0.00 | 0.00 | 32 | 1020.3 |
| 20260508062845 | 21 | 22 | 4.8 | 4.8 | 0.00 | 0.00 | 0.00 | 32 | 1020.3 |
| 20260508062346 | 21 | 59 | 1.6 | 1.6 | 0.00 | 0.00 | 0.00 | 32 | 1020.3 |
| 20260508061845 | 21 | 58 | 4.8 | 8.0 | 0.00 | 0.00 | 0.00 | 32 | 1020.0 |
| 20260508061344 | 21 | 62 | 6.4 | 9.7 | 0.00 | 0.00 | 0.00 | 32 | 1020.3 |
| 20260508060844 | 21 | 266 | 3.2 | 4.8 | 0.00 | 0.00 | 0.00 | 32 | 1020.3 |
| 20260508060345 | 20 | 82 | 4.8 | 4.8 | 0.00 | 0.00 | 0.00 | 33 | 1020.3 |
| 20260508055844 | 20 | 351 | 4.8 | 4.8 | 0.00 | 0.00 | 0.00 | 33 | 1020.3 |
| 20260508055344 | 20 | 71 | 6.4 | 8.0 | 0.00 | 0.00 | 0.00 | 33 | 1020.3 |
| 20260508054845 | 20 | 68 | 3.2 | 4.8 | 0.00 | 0.00 | 0.00 | 33 | 1020.3 |
| 20260508054345 | 20 | 106 | 1.6 | 3.2 | 0.00 | 0.00 | 0.00 | 33 | 1020.0 |
| 20260508053846 | 20 | 36 | 4.8 | 4.8 | 0.00 | 0.00 | 0.00 | 33 | 1020.3 |
| 20260508053344 | 20 | 339 | 1.6 | 1.6 | 0.00 | 0.00 | 0.00 | 35 | 1020.0 |
| 20260508052844 | 20 | 117 | 4.8 | 4.8 | 0.00 | 0.00 | 0.00 | 34 | 1020.0 |
| 20260508052347 | 20 | 24 | 4.8 | 3.2 | 0.00 | 0.00 | 0.00 | 35 | 1020.3 |
| 20260508051845 | 20 | 15 | 3.2 | 3.2 | 0.00 | 0.00 | 0.00 | 35 | 1020.0 |
| 20260508051344 | 20 | 59 | 3.2 | 3.2 | 0.00 | 0.00 | 0.00 | 35 | 1020.0 |
| 20260508050844 | 20 | 67 | 3.2 | 3.2 | 0.00 | 0.00 | 0.00 | 35 | 1020.3 |
| 20260508050344 | 20 | 275 | 4.8 | 8.0 | 0.00 | 0.00 | 0.00 | 35 | 1020.0 |
| 20260508045844 | 20 | 39 | 4.8 | 4.8 | 0.00 | 0.00 | 0.00 | 35 | 1020.0 |
| 20260508045345 | 19 | 52 | 6.4 | 8.0 | 0.00 | 0.00 | 0.00 | 36 | 1020.0 |
| 20260508044845 | 19 | 90 | 8.0 | 11.3 | 0.00 | 0.00 | 0.00 | 36 | 1020.0 |
| 20260508044344 | 19 | 56 | 3.2 | 3.2 | 0.00 | 0.00 | 0.00 | 37 | 1019.6 |
| 20260508043844 | 19 | 78 | 8.0 | 14.5 | 0.00 | 0.00 | 0.00 | 36 | 1020.0 |
| 20260508043344 | 19 | 65 | 4.8 | 8.0 | 0.00 | 0.00 | 0.00 | 37 | 1020.0 |
| 20260508042845 | 18 | 73 | 6.4 | 9.7 | 0.00 | 0.00 | 0.00 | 37 | 1019.6 |
| 20260508042346 | 18 | 90 | 6.4 | 9.7 | 0.00 | 0.00 | 0.00 | 37 | 1019.6 |
| 20260508041845 | 18 | 61 | 3.2 | 3.2 | 0.00 | 0.00 | 0.00 | 38 | 1019.6 |
| 20260508041344 | 18 | 77 | 0.0 | 0.0 | 0.00 | 0.00 | 0.00 | 38 | 1019.6 |
| 20260508040845 | 18 | 68 | 8.0 | 11.3 | 0.00 | 0.00 | 0.00 | 38 | 1019.6 |
| 20260508040345 | 18 | 47 | 0.0 | 0.0 | 0.00 | 0.00 | 0.00 | 39 | 1019.3 |
| 20260508035845 | 18 | 65 | 4.8 | 9.7 | 0.00 | 0.00 | 0.00 | 39 | 1019.3 |
| 20260508035344 | 18 | 22 | 4.8 | 4.8 | 0.00 | 0.00 | 0.00 | 39 | 1019.6 |
| 20260508034844 | 17 | 81 | 4.8 | 4.8 | 0.00 | 0.00 | 0.00 | 40 | 1019.3 |
| 20260508034345 | 17 | 76 | 4.8 | 4.8 | 0.00 | 0.00 | 0.00 | 40 | 1019.6 |
| 20260508033844 | 17 | 16 | 0.0 | 0.0 | 0.00 | 0.00 | 0.00 | 40 | 1019.3 |
| 20260508033345 | 17 | 73 | 0.0 | 0.0 | 0.00 | 0.00 | 0.00 | 40 | 1019.0 |
| 20260508032844 | 17 | 71 | 1.6 | 1.6 | 0.00 | 0.00 | 0.00 | 41 | 1019.3 |
| 20260508032344 | 17 | 69 | 3.2 | 4.8 | 0.00 | 0.00 | 0.00 | 41 | 1019.0 |
| 20260508031844 | 17 | 70 | 3.2 | 4.8 | 0.00 | 0.00 | 0.00 | 41 | 1019.0 |
| 20260508031345 | 17 | 76 | 4.8 | 8.0 | 0.00 | 0.00 | 0.00 | 42 | 1019.0 |
| 20260508030844 | 16 | 66 | 3.2 | 4.8 | 0.00 | 0.00 | 0.00 | 42 | 1019.0 |
| 20260508030344 | 16 | 81 | 3.2 | 3.2 | 0.00 | 0.00 | 0.00 | 44 | 1019.0 |
| 20260508025844 | 16 | 61 | 1.6 | 1.6 | 0.00 | 0.00 | 0.00 | 44 | 1019.0 |
| 20260508025344 | 16 | 61 | 3.2 | 3.2 | 0.00 | 0.00 | 0.00 | 45 | 1019.0 |
| 20260508024845 | 16 | 72 | 1.6 | 3.2 | 0.00 | 0.00 | 0.00 | 45 | 1019.0 |
| 20260508024346 | 16 | 64 | 4.8 | 4.8 | 0.00 | 0.00 | 0.00 | 45 | 1019.0 |
| 20260508023846 | 16 | 72 | 1.6 | 1.6 | 0.00 | 0.00 | 0.00 | 45 | 1019.0 |
| 20260508023345 | 16 | 57 | 1.6 | 1.6 | 0.00 | 0.00 | 0.00 | 45 | 1018.6 |
| 20260508022844 | 16 | 74 | 1.6 | 1.6 | 0.00 | 0.00 | 0.00 | 45 | 1019.0 |
| 20260508022344 | 16 | 70 | 3.2 | 3.2 | 0.00 | 0.00 | 0.00 | 45 | 1018.6 |
| 20260508021844 | 16 | 70 | 0.0 | 0.0 | 0.00 | 0.00 | 0.00 | 45 | 1018.6 |
| 20260508021345 | 16 | 57 | 1.6 | 1.6 | 0.00 | 0.00 | 0.00 | 45 | 1018.6 |
| 20260508020845 | 16 | 62 | 1.6 | 1.6 | 0.00 | 0.00 | 0.00 | 46 | 1019.0 |
| 20260508020345 | 16 | 65 | 0.0 | 0.0 | 0.00 | 0.00 | 0.00 | 46 | 1019.0 |
| 20260508015848 | 15 | 81 | 1.6 | 1.6 | 0.00 | 0.00 | 0.00 | 47 | 1019.0 |
| 20260508015344 | 15 | 81 | 0.0 | 0.0 | 0.00 | 0.00 | 0.00 | 48 | 1018.6 |
| 20260508014844 | 15 | 81 | 0.0 | 0.0 | 0.00 | 0.00 | 0.00 | 48 | 1018.3 |
| 20260508014344 | 15 | 81 | 0.0 | 0.0 | 0.00 | 0.00 | 0.00 | 48 | 1018.3 |
| 20260508013845 | 15 | 81 | 1.6 | 1.6 | 0.00 | 0.00 | 0.00 | 48 | 1018.6 |
| 20260508013345 | 15 | 69 | 1.6 | 1.6 | 0.00 | 0.00 | 0.00 | 48 | 1018.6 |
| 20260508012844 | 15 | 76 | 0.0 | 0.0 | 0.00 | 0.00 | 0.00 | 48 | 1018.3 |
| 20260508012345 | 15 | 75 | 0.0 | 0.0 | 0.00 | 0.00 | 0.00 | 48 | 1018.6 |
| 20260508011844 | 16 | 75 | 0.0 | 0.0 | 0.00 | 0.00 | 0.00 | 47 | 1018.6 |
| 20260508011345 | 15 | 74 | 0.0 | 0.0 | 0.00 | 0.00 | 0.00 | 47 | 1018.6 |
| 20260508010844 | 16 | 74 | 0.0 | 0.0 | 0.00 | 0.00 | 0.00 | 47 | 1018.6 |
| 20260508010344 | 16 | 74 | 0.0 | 0.0 | 0.00 | 0.00 | 0.00 | 47 | 1019.0 |
| 20260508005845 | 16 | 76 | 1.6 | 1.6 | 0.00 | 0.00 | 0.00 | 47 | 1018.6 |
| 20260508005344 | 16 | 78 | 0.0 | 0.0 | 0.00 | 0.00 | 0.00 | 47 | 1018.6 |
| 20260508004845 | 16 | 74 | 0.0 | 0.0 | 0.00 | 0.00 | 0.00 | 47 | 1018.6 |
| 20260508004344 | 16 | 46 | 0.0 | 0.0 | 0.00 | 0.00 | 0.00 | 47 | 1018.6 |
| 20260508003846 | 16 | 11 | 3.2 | 3.2 | 0.00 | 0.00 | 0.00 | 47 | 1019.0 |
| 20260508003344 | 16 | 299 | 1.6 | 3.2 | 0.00 | 0.00 | 0.00 | 47 | 1019.0 |
| 20260508002844 | 16 | 67 | 0.0 | 0.0 | 0.00 | 0.00 | 0.00 | 46 | 1019.0 |
| 20260508002344 | 16 | 69 | 0.0 | 1.6 | 0.00 | 0.00 | 0.00 | 46 | 1019.0 |
| 20260508001844 | 16 | 71 | 1.6 | 0.0 | 0.00 | 0.00 | 0.00 | 46 | 1018.6 |
| 20260508001345 | 16 | 85 | 4.8 | 4.8 | 0.00 | 0.00 | 0.00 | 45 | 1018.6 |
| 20260508000844 | 16 | 91 | 1.6 | 1.6 | 0.00 | 0.00 | 0.00 | 46 | 1018.6 |
| 20260508000344 | 16 | 65 | 1.6 | 1.6 | 0.00 | 0.00 | 0.00 | 47 | 1019.0 |
| 20260507235848 | 15 | 55 | 0.0 | 0.0 | 0.00 | 0.00 | 0.00 | 50 | 1019.0 |
| 20260507235345 | 15 | 36 | 0.0 | 0.0 | 0.00 | 0.00 | 0.00 | 51 | 1018.6 |
| 20260507234844 | 15 | 36 | 0.0 | 0.0 | 0.00 | 0.00 | 0.00 | 50 | 1018.6 |
| 20260507234344 | 15 | 36 | 0.0 | 0.0 | 0.00 | 0.00 | 0.00 | 50 | 1018.6 |
| 20260507233406 | 15 | 36 | 0.0 | 0.0 | 0.00 | 0.00 | 0.00 | 49 | 1018.6 |
| 20260507232844 | 16 | 36 | 0.0 | 0.0 | 0.00 | 0.00 | 0.00 | 48 | 1018.6 |
| 20260507232344 | 16 | 36 | 0.0 | 0.0 | 0.00 | 0.00 | 0.00 | 47 | 1018.6 |
| 20260507231844 | 16 | 36 | 0.0 | 0.0 | 0.00 | 0.00 | 0.00 | 47 | 1018.6 |
| 20260507231344 | 16 | 36 | 0.0 | 0.0 | 0.00 | 0.00 | 0.00 | 47 | 1018.6 |
| 20260507230845 | 16 | 35 | 0.0 | 0.0 | 0.00 | 0.00 | 0.00 | 46 | 1018.6 |
| 20260507230344 | 16 | 35 | 0.0 | 0.0 | 0.00 | 0.00 | 0.00 | 46 | 1018.3 |
| 20260507225845 | 16 | 35 | 0.0 | 0.0 | 0.00 | 0.00 | 0.00 | 46 | 1018.6 |
| 20260507225346 | 16 | 31 | 0.0 | 0.0 | 0.00 | 0.00 | 0.00 | 47 | 1018.6 |
| 20260507224844 | 16 | 32 | 0.0 | 0.0 | 0.00 | 0.00 | 0.00 | 47 | 1019.0 |
| 20260507224344 | 16 | 32 | 0.0 | 0.0 | 0.00 | 0.00 | 0.00 | 47 | 1018.6 |
| 20260507223845 | 16 | 32 | 0.0 | 0.0 | 0.00 | 0.00 | 0.00 | 46 | 1018.6 |
| 20260507223344 | 16 | 32 | 0.0 | 0.0 | 0.00 | 0.00 | 0.00 | 46 | 1018.6 |
| 20260507222845 | 16 | 31 | 0.0 | 0.0 | 0.00 | 0.00 | 0.00 | 45 | 1018.6 |
| 20260507222344 | 16 | 32 | 0.0 | 0.0 | 0.00 | 0.00 | 0.00 | 45 | 1019.0 |
| 20260507221845 | 17 | 32 | 0.0 | 0.0 | 0.00 | 0.00 | 0.00 | 45 | 1018.6 |
| 20260507221344 | 17 | 32 | 0.0 | 0.0 | 0.00 | 0.00 | 0.00 | 44 | 1018.6 |
| 20260507220845 | 17 | 32 | 0.0 | 0.0 | 0.00 | 0.00 | 0.00 | 44 | 1019.0 |
| 20260507220346 | 17 | 27 | 0.0 | 0.0 | 0.00 | 0.00 | 0.00 | 43 | 1018.6 |
| 20260507215845 | 17 | 27 | 0.0 | 0.0 | 0.00 | 0.00 | 0.00 | 43 | 1018.6 |
| 20260507215344 | 17 | 27 | 0.0 | 0.0 | 0.00 | 0.00 | 0.00 | 42 | 1018.6 |
| 20260507214845 | 17 | 350 | 1.6 | 1.6 | 0.00 | 0.00 | 0.00 | 42 | 1018.6 |
| 20260507214345 | 17 | 69 | 0.0 | 0.0 | 0.00 | 0.00 | 0.00 | 42 | 1018.6 |
| 20260507213845 | 17 | 66 | 1.6 | 3.2 | 0.00 | 0.00 | 0.00 | 42 | 1018.6 |
| 20260507213345 | 17 | 35 | 0.0 | 0.0 | 0.00 | 0.00 | 0.00 | 43 | 1019.0 |
| 20260507212846 | 17 | 36 | 1.6 | 1.6 | 0.00 | 0.00 | 0.00 | 41 | 1018.6 |
| 20260507212344 | 17 | 39 | 0.0 | 0.0 | 0.00 | 0.00 | 0.00 | 42 | 1018.6 |
| 20260507211844 | 17 | 41 | 0.0 | 0.0 | 0.00 | 0.00 | 0.00 | 42 | 1018.6 |
| 20260507211344 | 17 | 41 | 0.0 | 0.0 | 0.00 | 0.00 | 0.00 | 42 | 1018.6 |
| 20260507210845 | 17 | 35 | 0.0 | 0.0 | 0.00 | 0.00 | 0.00 | 42 | 1018.6 |
| 20260507210344 | 17 | 35 | 0.0 | 0.0 | 0.00 | 0.00 | 0.00 | 43 | 1018.6 |
| 20260507205844 | 17 | 35 | 0.0 | 0.0 | 0.00 | 0.00 | 0.00 | 42 | 1018.6 |
| 20260507205346 | 18 | 35 | 0.0 | 0.0 | 0.00 | 0.00 | 0.00 | 42 | 1018.6 |
| 20260507204845 | 18 | 40 | 0.0 | 0.0 | 0.00 | 0.00 | 0.00 | 41 | 1018.3 |
| 20260507204344 | 17 | 40 | 1.6 | 0.0 | 0.00 | 0.00 | 0.00 | 42 | 1018.3 |
| 20260507203845 | 18 | 39 | 0.0 | 0.0 | 0.00 | 0.00 | 0.00 | 42 | 1018.3 |
| 20260507203345 | 18 | 24 | 0.0 | 0.0 | 0.00 | 0.00 | 0.00 | 42 | 1018.3 |
| 20260507202844 | 18 | 24 | 0.0 | 0.0 | 0.00 | 0.00 | 0.00 | 41 | 1018.3 |
| 20260507202344 | 18 | 21 | 0.0 | 0.0 | 0.00 | 0.00 | 0.00 | 41 | 1018.3 |
| 20260507201844 | 18 | 87 | 0.0 | 0.0 | 0.00 | 0.00 | 0.00 | 41 | 1018.3 |
| 20260507201344 | 18 | 24 | 0.0 | 0.0 | 0.00 | 0.00 | 0.00 | 41 | 1018.3 |
| 20260507200844 | 18 | 5 | 1.6 | 1.6 | 0.00 | 0.00 | 0.00 | 41 | 1018.3 |
| 20260507200344 | 18 | 21 | 0.0 | 0.0 | 0.00 | 0.00 | 0.00 | 41 | 1018.6 |
| 20260507195845 | 18 | 68 | 0.0 | 0.0 | 0.00 | 0.00 | 0.00 | 41 | 1018.3 |
| 20260507195344 | 18 | 67 | 0.0 | 0.0 | 0.00 | 0.00 | 0.00 | 40 | 1018.6 |
| 20260507194844 | 18 | 67 | 0.0 | 0.0 | 0.00 | 0.00 | 0.00 | 40 | 1018.6 |
| 20260507194345 | 18 | 67 | 0.0 | 0.0 | 0.00 | 0.00 | 0.00 | 39 | 1018.3 |
| 20260507193844 | 18 | 67 | 0.0 | 0.0 | 0.00 | 0.00 | 0.00 | 39 | 1018.3 |
| 20260507193345 | 18 | 69 | 0.0 | 0.0 | 0.00 | 0.00 | 0.00 | 39 | 1018.3 |
| 20260507192845 | 18 | 72 | 0.0 | 0.0 | 0.00 | 0.00 | 0.00 | 38 | 1018.3 |
| 20260507192345 | 18 | 71 | 0.0 | 0.0 | 0.00 | 0.00 | 0.00 | 38 | 1018.3 |
| 20260507191845 | 18 | 71 | 0.0 | 0.0 | 0.00 | 0.00 | 0.00 | 39 | 1018.3 |
| 20260507191344 | 18 | 71 | 0.0 | 0.0 | 0.00 | 0.00 | 0.00 | 39 | 1018.3 |
| 20260507190846 | 18 | 72 | 0.0 | 0.0 | 0.00 | 0.00 | 0.00 | 39 | 1018.3 |
| 20260507190345 | 19 | 71 | 0.0 | 0.0 | 0.00 | 0.00 | 0.00 | 38 | 1018.3 |
| 20260507185844 | 19 | 71 | 0.0 | 0.0 | 0.00 | 0.00 | 0.00 | 37 | 1018.3 |
| 20260507185346 | 20 | 73 | 0.0 | 0.0 | 0.00 | 0.00 | 0.00 | 36 | 1018.3 |
| 20260507184845 | 20 | 89 | 1.6 | 1.6 | 0.00 | 0.00 | 0.00 | 36 | 1018.3 |
| 20260507184344 | 20 | 49 | 1.6 | 0.0 | 0.00 | 0.00 | 0.00 | 36 | 1017.9 |
| 20260507183844 | 20 | 74 | 0.0 | 0.0 | 0.00 | 0.00 | 0.00 | 35 | 1018.3 |
| 20260507183345 | 20 | 64 | 0.0 | 0.0 | 0.00 | 0.00 | 0.00 | 35 | 1018.3 |
| 20260507182848 | 20 | 71 | 0.0 | 0.0 | 0.00 | 0.00 | 0.00 | 35 | 1017.9 |
| 20260507182345 | 19 | 19 | 0.0 | 0.0 | 0.00 | 0.00 | 0.00 | 35 | 1017.9 |
| 20260507181844 | 19 | 46 | 1.6 | 1.6 | 0.00 | 0.00 | 0.00 | 36 | 1017.9 |
| 20260507181345 | 19 | 49 | 0.0 | 0.0 | 0.00 | 0.00 | 0.00 | 36 | 1017.9 |
| 20260507180844 | 20 | 50 | 1.6 | 1.6 | 0.00 | 0.00 | 0.00 | 35 | 1017.6 |
| 20260507180349 | 20 | 247 | 0.0 | 0.0 | 0.00 | 0.00 | 0.00 | 35 | 1017.6 |
| 20260507175845 | 20 | 247 | 0.0 | 0.0 | 0.00 | 0.00 | 0.00 | 34 | 1017.3 |
| 20260507175344 | 20 | 247 | 0.0 | 0.0 | 0.00 | 0.00 | 0.00 | 34 | 1017.3 |
| 20260507174845 | 20 | 247 | 0.0 | 0.0 | 0.00 | 0.00 | 0.00 | 34 | 1017.6 |
| 20260507174345 | 20 | 246 | 0.0 | 0.0 | 0.00 | 0.00 | 0.00 | 33 | 1017.3 |
| 20260507173845 | 20 | 253 | 0.0 | 0.0 | 0.00 | 0.00 | 0.00 | 32 | 1017.3 |
| 20260507173344 | 20 | 258 | 1.6 | 1.6 | 0.00 | 0.00 | 0.00 | 31 | 1017.3 |
| 20260507172844 | 20 | 84 | 0.0 | 0.0 | 0.00 | 0.00 | 0.00 | 28 | 1017.3 |
| 20260507172345 | 20 | 73 | 0.0 | 0.0 | 0.00 | 0.00 | 0.00 | 28 | 1017.3 |
| 20260507171844 | 20 | 73 | 0.0 | 0.0 | 0.00 | 0.00 | 0.00 | 28 | 1017.3 |
| 20260507171344 | 20 | 73 | 0.0 | 0.0 | 0.00 | 0.00 | 0.00 | 27 | 1017.3 |
| 20260507170845 | 20 | 73 | 0.0 | 0.0 | 0.00 | 0.00 | 0.00 | 27 | 1016.9 |
| 20260507170346 | 20 | 73 | 0.0 | 0.0 | 0.00 | 0.00 | 0.00 | 27 | 1016.9 |
| 20260507165845 | 20 | 73 | 0.0 | 0.0 | 0.00 | 0.00 | 0.00 | 26 | 1016.9 |
| 20260507165345 | 21 | 73 | 0.0 | 0.0 | 0.00 | 0.00 | 0.00 | 26 | 1016.9 |
| 20260507164844 | 21 | 73 | 0.0 | 0.0 | 0.00 | 0.00 | 0.00 | 25 | 1016.9 |
| 20260507164345 | 21 | 73 | 0.0 | 0.0 | 0.00 | 0.00 | 0.00 | 25 | 1016.6 |
| 20260507163845 | 21 | 72 | 1.6 | 1.6 | 0.00 | 0.00 | 0.00 | 25 | 1016.6 |
| 20260507163346 | 21 | 61 | 1.6 | 1.6 | 0.00 | 0.00 | 0.00 | 25 | 1016.6 |
| 20260507162845 | 21 | 18 | 1.6 | 1.6 | 0.00 | 0.00 | 0.00 | 25 | 1016.6 |
| 20260507162344 | 21 | 57 | 1.6 | 1.6 | 0.00 | 0.00 | 0.00 | 25 | 1016.3 |
| 20260507161846 | 21 | 16 | 0.0 | 0.0 | 0.00 | 0.00 | 0.00 | 24 | 1016.6 |
| 20260507161345 | 21 | 78 | 1.6 | 1.6 | 0.00 | 0.00 | 0.00 | 25 | 1016.6 |
| 20260507160852 | 21 | 92 | 3.2 | 4.8 | 0.00 | 0.00 | 0.00 | 24 | 1016.6 |
| 20260507160346 | 21 | 15 | 1.6 | 1.6 | 0.00 | 0.00 | 0.00 | 24 | 1016.6 |
| 20260507155846 | 22 | 83 | 1.6 | 1.6 | 0.00 | 0.00 | 0.00 | 24 | 1016.3 |
| 20260507155348 | 22 | 57 | 0.0 | 0.0 | 0.00 | 0.00 | 0.00 | 23 | 1016.3 |
| 20260507154846 | 22 | 58 | 1.6 | 0.0 | 0.00 | 0.00 | 0.00 | 23 | 1016.3 |
| 20260507154345 | 22 | 74 | 3.2 | 3.2 | 0.00 | 0.00 | 0.00 | 22 | 1016.3 |
| 20260507153845 | 22 | 68 | 3.2 | 3.2 | 0.00 | 0.00 | 0.00 | 22 | 1016.3 |
| 20260507153344 | 22 | 291 | 1.6 | 1.6 | 0.00 | 0.00 | 0.00 | 22 | 1015.9 |
| 20260507152845 | 22 | 349 | 1.6 | 3.2 | 0.00 | 0.00 | 0.00 | 22 | 1016.3 |
| 20260507152344 | 23 | 30 | 0.0 | 1.6 | 0.00 | 0.00 | 0.00 | 22 | 1016.3 |
| 20260507151845 | 23 | 338 | 0.0 | 0.0 | 0.00 | 0.00 | 0.00 | 21 | 1015.9 |
| 20260507151346 | 24 | 346 | 0.0 | 0.0 | 0.00 | 0.00 | 0.00 | 20 | 1015.9 |
| 20260507150845 | 24 | 346 | 1.6 | 0.0 | 0.00 | 0.00 | 0.00 | 21 | 1015.9 |
| 20260507150346 | 25 | 345 | 1.6 | 1.6 | 0.00 | 0.00 | 0.00 | 20 | 1016.3 |
| 20260507145844 | 24 | 89 | 0.0 | 0.0 | 0.00 | 0.00 | 0.00 | 20 | 1015.9 |
| 20260507145345 | 25 | 84 | 0.0 | 0.0 | 0.00 | 0.00 | 0.00 | 20 | 1015.9 |
| 20260507144844 | 25 | 77 | 1.6 | 1.6 | 0.00 | 0.00 | 0.00 | 20 | 1015.9 |
| 20260507144350 | 25 | 15 | 0.0 | 0.0 | 0.00 | 0.00 | 0.00 | 20 | 1015.9 |
| 20260507143855 | 25 | 261 | 0.0 | 0.0 | 0.00 | 0.00 | 0.00 | 20 | 1016.3 |
| 20260507143344 | 25 | 261 | 0.0 | 0.0 | 0.00 | 0.00 | 0.00 | 19 | 1015.9 |
| 20260507142845 | 25 | 256 | 0.0 | 0.0 | 0.00 | 0.00 | 0.00 | 19 | 1016.3 |
| 20260507142345 | 24 | 293 | 0.0 | 1.6 | 0.00 | 0.00 | 0.00 | 20 | 1015.9 |